Location: Austin
(30.3000°N, 97.7500°W)
Time: 23:47:15
(UTC-05:00)

COSMOS 2455 - Pass Details

Date: 06 May 2026
Orbit: 901 x 907 km, 67.1° (Epoch: 13 May)

Event Time Altitude Azimuth Distance (km) Brightness Sun altitude
Rises 20:48:52 0° 337° (NNW) 3,533 6.7 -8.1°
Reaches altitude 10° 20:51:23 10° 339° (NNW) 2,588 6.0 -8.6°
Maximum altitude 20:57:24 77° 65° (ENE) 929 2.8 -9.8°
Drops below altitude 10° 21:03:22 10° 152° (SSE) 2,572 4.7 -10.9°
Enters shadow 21:03:56 - 152° (SSE) 2,782 4.9 -11.0°
